RYR7AC EBCI-LERS

Flight info

Callsign RYR7AC
Flight time N/A
Altitude 35000
Route CIV N872 LESDO DCT KOVIN DCT DUCRA UM728 RESMI UN857 DISAK DCT DIRMO DCT VALKU DCT ATSUP DCT MINSO DCT DEGOL DCT PPG DCT ALBER P84 GIR
Aircraft B738/M-SDE2E3FGHIRWXY/LB1

Departure

Time 2026-04-28 17:01
Airport Brussels South Charleroi Airport (EBCI)

Arrival

Time N/A
Airport Reus Airport (LERS)
Time Latitude Longitude Altitude Speed Heading
2026-04-28 16:32 50.46836 4.46987 612 ft 0 kts 335°
2026-04-28 16:49 50.46823 4.46997 620 ft 2 kts 335°
2026-04-28 16:50 50.46808 4.47008 625 ft 2 kts 333°
2026-04-28 16:50 50.46794 4.47022 625 ft 2 kts 300°
2026-04-28 16:50 50.46793 4.47037 619 ft 0 kts 244°
2026-04-28 16:53 50.46792 4.47037 619 ft 0 kts 244°
2026-04-28 16:53 50.46786 4.47012 621 ft 5 kts 249°
2026-04-28 16:53 50.46766 4.46948 621 ft 8 kts 244°
2026-04-28 16:53 50.46737 4.46847 618 ft 12 kts 246°
2026-04-28 16:54 50.46701 4.46721 615 ft 13 kts 245°
2026-04-28 16:54 50.46665 4.46600 621 ft 12 kts 244°
2026-04-28 16:54 50.46628 4.46531 622 ft 4 kts 188°
2026-04-28 16:54 50.46607 4.46536 621 ft 5 kts 165°
2026-04-28 16:55 50.46568 4.46558 623 ft 4 kts 167°
2026-04-28 16:55 50.46540 4.46545 623 ft 4 kts 218°
2026-04-28 16:55 50.46519 4.46494 616 ft 8 kts 243°
2026-04-28 16:55 50.46491 4.46398 619 ft 11 kts 246°
2026-04-28 16:56 50.46457 4.46286 615 ft 12 kts 245°
2026-04-28 16:56 50.46416 4.46142 619 ft 16 kts 246°
2026-04-28 16:56 50.46364 4.45964 622 ft 19 kts 245°
2026-04-28 16:56 50.46305 4.45762 614 ft 21 kts 245°
2026-04-28 16:57 50.46246 4.45559 616 ft 20 kts 245°
2026-04-28 16:57 50.46190 4.45366 623 ft 19 kts 246°
2026-04-28 16:57 50.46135 4.45174 622 ft 19 kts 246°
2026-04-28 16:57 50.46082 4.44994 618 ft 18 kts 245°
2026-04-28 16:58 50.46031 4.44817 616 ft 17 kts 245°
2026-04-28 16:58 50.45981 4.44646 616 ft 17 kts 246°
2026-04-28 16:58 50.45932 4.44483 621 ft 16 kts 242°
2026-04-28 16:58 50.45867 4.44342 623 ft 16 kts 232°
2026-04-28 16:59 50.45802 4.44210 612 ft 15 kts 232°
2026-04-28 16:59 50.45739 4.44083 612 ft 14 kts 231°
2026-04-28 16:59 50.45671 4.43980 621 ft 14 kts 191°
2026-04-28 16:59 50.45627 4.44039 616 ft 5 kts 82°
2026-04-28 17:00 50.45641 4.44094 616 ft 7 kts 68°
2026-04-28 17:00 50.45707 4.44328 624 ft 55 kts 65°
2026-04-28 17:00 50.45972 4.45239 619 ft 126 kts 65°
2026-04-28 17:00 50.46401 4.46720 797 ft 162 kts 65°
2026-04-28 17:01 50.46894 4.48329 1526 ft 164 kts 59°
2026-04-28 17:01 50.47718 4.49532 2216 ft 169 kts 20°
2026-04-28 17:01 50.48880 4.50132 2736 ft 189 kts 24°
2026-04-28 17:01 50.50092 4.51001 3565 ft 187 kts 24°
2026-04-28 17:02 50.51285 4.51665 4516 ft 183 kts
2026-04-28 17:02 50.52149 4.51567 4856 ft 195 kts 340°
2026-04-28 17:02 50.53631 4.49839 5643 ft 200 kts 314°
2026-04-28 17:02 50.53964 4.49314 5924 ft 200 kts 314°
2026-04-28 17:03 50.55009 4.47647 6782 ft 198 kts 313°
2026-04-28 17:03 50.55820 4.46192 7384 ft 202 kts 299°
2026-04-28 17:03 50.56292 4.44084 7593 ft 212 kts 277°
2026-04-28 17:04 50.56202 4.39066 7967 ft 251 kts 268°
2026-04-28 17:04 50.56185 4.36173 8243 ft 275 kts 270°
2026-04-28 17:05 50.56233 4.29993 9700 ft 287 kts 264°
2026-04-28 17:05 50.55548 4.27053 10387 ft 294 kts 234°
2026-04-28 17:05 50.54010 4.24745 10615 ft 318 kts 218°
2026-04-28 17:06 50.50250 4.20166 10964 ft 364 kts 218°
2026-04-28 17:06 50.48245 4.17680 11325 ft 377 kts 218°
2026-04-28 17:06 50.44112 4.12447 12689 ft 383 kts 219°
2026-04-28 17:07 50.42029 4.09774 13319 ft 388 kts 219°
2026-04-28 17:07 50.39925 4.07063 13971 ft 393 kts 219°
2026-04-28 17:07 50.37827 4.04354 14647 ft 396 kts 219°
2026-04-28 17:07 50.35694 4.01600 15331 ft 400 kts 219°
2026-04-28 17:08 50.33530 3.98808 15974 ft 404 kts 219°
2026-04-28 17:08 50.31347 3.95995 16624 ft 407 kts 219°
2026-04-28 17:08 50.29151 3.93168 17232 ft 411 kts 219°
2026-04-28 17:08 50.26925 3.90305 17826 ft 415 kts 219°
2026-04-28 17:09 50.24684 3.87428 18397 ft 419 kts 219°
2026-04-28 17:09 50.22417 3.84522 18956 ft 422 kts 219°
2026-04-28 17:09 50.20168 3.81641 19495 ft 426 kts 219°
2026-04-28 17:09 50.17865 3.78696 20033 ft 429 kts 219°
2026-04-28 17:10 50.15549 3.75738 20569 ft 432 kts 219°
2026-04-28 17:10 50.13201 3.72787 21057 ft 435 kts 217°
2026-04-28 17:10 50.10598 3.70351 21543 ft 438 kts 204°
2026-04-28 17:10 50.07710 3.68803 22037 ft 441 kts 194°
2026-04-28 17:11 50.04677 3.68012 22489 ft 444 kts 187°
2026-04-28 17:11 50.01607 3.67393 22898 ft 447 kts 188°
2026-04-28 17:11 49.98502 3.66729 23293 ft 450 kts 188°
2026-04-28 17:11 49.95395 3.66038 23695 ft 453 kts 188°
2026-04-28 17:12 49.92259 3.65327 24093 ft 456 kts 188°
2026-04-28 17:12 49.89118 3.64607 24474 ft 458 kts 188°
2026-04-28 17:12 49.85938 3.63875 24842 ft 461 kts 188°
2026-04-28 17:12 49.82757 3.63143 25195 ft 463 kts 188°
2026-04-28 17:13 49.79561 3.62409 25536 ft 466 kts 188°
2026-04-28 17:13 49.76387 3.61681 25865 ft 468 kts 188°
2026-04-28 17:13 49.73156 3.60942 26181 ft 470 kts 188°
2026-04-28 17:13 49.69903 3.60200 26487 ft 473 kts 188°
2026-04-28 17:14 49.66641 3.59457 26781 ft 475 kts 188°
2026-04-28 17:14 49.63365 3.58713 27065 ft 477 kts 188°
2026-04-28 17:14 49.60076 3.57966 27339 ft 479 kts 188°
2026-04-28 17:14 49.56767 3.57216 27620 ft 480 kts 188°
2026-04-28 17:15 49.53457 3.56466 27970 ft 480 kts 188°
2026-04-28 17:15 49.50162 3.55721 28376 ft 478 kts 188°
2026-04-28 17:15 49.46872 3.54978 28783 ft 477 kts 188°
2026-04-28 17:15 49.43623 3.54246 29158 ft 476 kts 188°
2026-04-28 17:16 49.40340 3.53506 29523 ft 476 kts 188°
2026-04-28 17:16 49.37075 3.52772 29901 ft 475 kts 188°
2026-04-28 17:16 49.33798 3.52036 30292 ft 474 kts 188°
2026-04-28 17:16 49.30539 3.51305 30677 ft 473 kts 188°
2026-04-28 17:17 49.27281 3.50575 31046 ft 472 kts 188°
2026-04-28 17:17 49.25123 3.50092 31282 ft 472 kts 188°
2026-04-28 17:17 49.20776 3.49121 31766 ft 471 kts 188°
2026-04-28 17:17 49.18627 3.48641 32001 ft 470 kts 188°
2026-04-28 17:18 49.14332 3.47684 32457 ft 470 kts 188°
2026-04-28 17:18 49.11101 3.46965 32795 ft 469 kts 188°
2026-04-28 17:18 49.07880 3.46249 33127 ft 468 kts 188°
2026-04-28 17:18 49.04659 3.45534 33453 ft 468 kts 188°
2026-04-28 17:19 49.02484 3.45052 33670 ft 467 kts 188°
2026-04-28 17:19 48.99267 3.44340 33985 ft 466 kts 188°
2026-04-28 17:19 48.96061 3.43631 34310 ft 465 kts 188°
2026-04-28 17:19 48.92855 3.42986 34632 ft 464 kts 187°
2026-04-28 17:20 48.89685 3.42463 34928 ft 464 kts 186°
2026-04-28 17:20 48.86464 3.41982 34987 ft 468 kts 186°
2026-04-28 17:20 48.79958 3.41031 34991 ft 468 kts 186°
2026-04-28 17:21 48.73519 3.40051 35000 ft 463 kts 186°
2026-04-28 17:22 48.63915 3.38540 35004 ft 461 kts 186°
2026-04-28 17:22 48.57569 3.37537 35002 ft 461 kts 186°
2026-04-28 17:23 48.47989 3.36031 35003 ft 461 kts 186°
2026-04-28 17:23 48.41582 3.35027 35000 ft 462 kts 186°
2026-04-28 17:24 48.35177 3.34027 35000 ft 463 kts 186°
2026-04-28 17:24 48.28792 3.33033 35009 ft 463 kts 186°
2026-04-28 17:25 48.19148 3.31535 34998 ft 465 kts 186°
2026-04-28 17:26 48.12713 3.30539 35000 ft 465 kts 186°
2026-04-28 17:26 48.06308 3.29550 35002 ft 465 kts 186°
2026-04-28 17:27 47.99862 3.28557 35000 ft 465 kts 186°
2026-04-28 17:27 47.93408 3.27565 35000 ft 465 kts 186°
2026-04-28 17:28 47.86975 3.26580 34997 ft 465 kts 186°
2026-04-28 17:28 47.77357 3.25110 35002 ft 465 kts 186°
2026-04-28 17:29 47.70927 3.24131 34998 ft 464 kts 186°
2026-04-28 17:30 47.61275 3.22665 34999 ft 464 kts 186°
2026-04-28 17:30 47.51668 3.21212 35009 ft 464 kts 186°
2026-04-28 17:31 47.42018 3.19757 34999 ft 464 kts 186°